Adana, Turkey

10:11 AM +03 on October 22, 2017 (GMT +0300)
Adana

Weather History for LTAF - January, 2013

Change the Weather History Date:

Tuesday, January 8, 2013

  Actual Average Record
Temperature  
Mean Temperature 42 °F -  
Max Temperature 46 °F 58 °F 71 °F (2014)
Min Temperature 35 °F 39 °F 30 °F (2007)
Degree Days  
Heating Degree Days 24    
Moisture  
Dew Point 28 °F    
Average Humidity 58    
Maximum Humidity 93    
Minimum Humidity 37    
Precipitation  
Precipitation 0.00 in 0.15 in - ()
Sea Level Pressure  
Sea Level Pressure 29.71 in    
Wind  
Wind Speed 6 mph ()    
Max Wind Speed 15 mph    
Max Gust Speed -    
Visibility 4.2 miles    
Events Rain    
Averages and records for this station are not official NWS values.
T = Trace of Precipitation, MM = Missing Value Source: Averaged Metar Reports

Daily Weather History Graph

Daily Weather History Graph

Search for Another Location

Airport or City:

Trip Planner

Search our weather history database for the weather conditions in past years. The results will help you decide how hot, cold, wet, or windy it might be!

Date:

Astronomy

Jan. 08, 2013 Rise Set
Actual Time 6:52 AM EET 4:38 PM EET
Civil Twilight 6:23 AM EET 5:07 PM EET
Nautical Twilight 5:51 AM EET 5:39 PM EET
Astronomical Twilight 5:20 AM EET 6:11 PM EET
Moon 3:02 AM EET (1/8) 1:21 PM EET (1/8)
Length of Visible Light 10h 43m
Length of Day
9h 46m
Waning Crescent, 16% of the Moon is Illuminated
Jan 8
Waning Crescent
Jan 11
New
Jan 19
First Quarter
Jan 27
Full
Feb 3
Last Quarter

Hourly Weather History & Observations

Time (EET) Temp. Windchill Dew Point Humidity Pressure Visibility Wind Dir Wind Speed Gust Speed Precip Events Conditions
12:20 AM 41.0 °F - 37.4 °F 87% 29.65 in 3.1 mi North 2.3 mph - N/A   Mostly Cloudy
12:50 AM 41.0 °F 36.4 °F 39.2 °F 93% 29.65 in 3.1 mi North 6.9 mph - N/A   Mostly Cloudy
1:20 AM 42.8 °F 39.3 °F 37.4 °F 81% 29.68 in 3.1 mi North 5.8 mph - N/A   Mostly Cloudy
1:50 AM 41.0 °F 38.0 °F 37.4 °F 87% 29.68 in 3.1 mi NE 4.6 mph - N/A   Scattered Clouds
2:20 AM 41.0 °F 39.0 °F 35.6 °F 81% 29.68 in 3.1 mi NE 3.5 mph - N/A   Mostly Cloudy
2:50 AM 41.0 °F 38.0 °F 35.6 °F 81% 29.68 in 3.1 mi ESE 4.6 mph - N/A Rain Light Rain Showers
3:20 AM 39.2 °F 35.0 °F 33.8 °F 81% 29.68 in 3.1 mi NNE 5.8 mph - N/A   Mostly Cloudy
3:50 AM 41.0 °F 39.0 °F 35.6 °F 81% 29.68 in 3.1 mi NE 3.5 mph - N/A   Mostly Cloudy
4:20 AM 41.0 °F 39.0 °F 35.6 °F 81% 29.68 in 3.1 mi NNE 3.5 mph - N/A   Mostly Cloudy
4:50 AM 42.8 °F 38.0 °F 32.0 °F 66% 29.68 in 3.1 mi North 8.1 mph - N/A   Haze
5:20 AM 41.0 °F 36.4 °F 30.2 °F 65% 29.68 in 3.1 mi NNE 6.9 mph - N/A   Haze
5:50 AM 39.2 °F 35.9 °F 30.2 °F 70% 29.71 in 3.1 mi NNE 4.6 mph - N/A   Mostly Cloudy
6:20 AM 39.2 °F 34.2 °F 32.0 °F 75% 29.71 in 3.1 mi NNE 6.9 mph - N/A   Scattered Clouds
6:50 AM 41.0 °F 35.2 °F 30.2 °F 65% 29.71 in 3.1 mi North 9.2 mph - N/A   Haze
7:20 AM 41.0 °F 35.2 °F 30.2 °F 65% 29.71 in 3.1 mi North 9.2 mph - N/A   Haze
7:50 AM 42.8 °F 37.5 °F 30.2 °F 61% 29.74 in 3.1 mi NNE 9.2 mph - N/A   Haze
8:20 AM 44.6 °F 40.2 °F 30.2 °F 57% 29.74 in 6.2 mi NNE 8.1 mph - N/A   Scattered Clouds
8:50 AM 44.6 °F 39.2 °F 28.4 °F 53% 29.74 in 6.2 mi NNE 10.4 mph - N/A   Scattered Clouds
9:20 AM 46.4 °F 42.4 °F 32.0 °F 57% 29.74 in 6.2 mi North 8.1 mph - N/A   Scattered Clouds
9:50 AM 46.4 °F 40.4 °F 26.6 °F 46% 29.77 in 6.2 mi North 13.8 mph - N/A   Scattered Clouds
10:20 AM 46.4 °F 40.4 °F 28.4 °F 50% 29.77 in 6.2 mi North 13.8 mph - N/A   Scattered Clouds
10:50 AM 44.6 °F 37.8 °F 28.4 °F 53% 29.77 in 6.2 mi North 15.0 mph - N/A   Scattered Clouds
11:20 AM 44.6 °F 37.8 °F 30.2 °F 57% 29.74 in 6.2 mi North 15.0 mph - N/A   Scattered Clouds
11:50 AM 46.4 °F 40.7 °F 28.4 °F 50% 29.74 in 6.2 mi North 12.7 mph - N/A   Scattered Clouds
12:50 PM 46.4 °F 41.1 °F 26.6 °F 46% 29.71 in 6.2 mi North 11.5 mph - N/A   Scattered Clouds
1:20 PM 46.4 °F 40.7 °F 24.8 °F 43% 29.71 in 6.2 mi North 12.7 mph - N/A   Scattered Clouds
1:50 PM 46.4 °F 40.4 °F 26.6 °F 46% 29.71 in 6.2 mi NNW 13.8 mph - N/A   Scattered Clouds
2:20 PM 46.4 °F 41.5 °F 23.0 °F 40% 29.71 in 6.2 mi North 10.4 mph - N/A   Scattered Clouds
2:50 PM 46.4 °F 42.4 °F 23.0 °F 40% 29.71 in 6.2 mi North 8.1 mph - N/A   Scattered Clouds
3:20 PM 46.4 °F 41.9 °F 21.2 °F 37% 29.71 in 6.2 mi North 9.2 mph - N/A   Scattered Clouds
3:50 PM 46.4 °F 42.9 °F 21.2 °F 37% 29.71 in 6.2 mi North 6.9 mph - N/A   Partly Cloudy
4:20 PM 44.6 °F 40.7 °F 21.2 °F 39% 29.71 in 6.2 mi NNE 6.9 mph - N/A   Partly Cloudy
4:50 PM 42.8 °F 40.1 °F 21.2 °F 42% 29.71 in 3.1 mi North 4.6 mph - N/A   Haze
5:20 PM 41.0 °F - 24.8 °F 53% 29.71 in 3.1 mi ENE 2.3 mph - N/A   Haze
5:50 PM 41.0 °F - 24.8 °F 53% 29.74 in 3.1 mi Variable 2.3 mph - N/A   Haze
6:20 PM 41.0 °F 37.1 °F 26.6 °F 57% 29.74 in 3.1 mi WNW 5.8 mph - N/A   Haze
6:50 PM 41.0 °F 38.0 °F 23.0 °F 49% 29.74 in 3.1 mi NW 4.6 mph - N/A   Haze
7:20 PM 41.0 °F 38.0 °F 23.0 °F 49% 29.74 in 3.1 mi NNW 4.6 mph - N/A   Haze
7:50 PM 41.0 °F 38.0 °F 21.2 °F 45% 29.74 in 3.1 mi NNW 4.6 mph - N/A   Haze
8:20 PM 39.2 °F 34.2 °F 21.2 °F 49% 29.71 in 3.1 mi NNW 6.9 mph - N/A   Haze
8:50 PM 39.2 °F - 19.4 °F 45% 29.74 in 3.1 mi Variable 1.2 mph - N/A   Haze
9:20 PM 39.2 °F 37.0 °F 21.2 °F 49% 29.71 in 3.1 mi NW 3.5 mph - N/A   Haze
9:50 PM 39.2 °F 35.9 °F 23.0 °F 52% 29.71 in 3.1 mi NNW 4.6 mph - N/A   Haze
10:20 PM 39.2 °F 35.9 °F 23.0 °F 52% 29.71 in 3.1 mi North 4.6 mph - N/A   Haze
10:50 PM 37.4 °F 33.8 °F 23.0 °F 56% 29.71 in 3.1 mi NW 4.6 mph - N/A   Haze
11:20 PM 37.4 °F 32.8 °F 23.0 °F 56% 29.68 in 4.3 mi North 5.8 mph - N/A   Partly Cloudy
11:50 PM 35.6 °F 31.7 °F 23.0 °F 60% 29.68 in 6.2 mi NNE 4.6 mph - N/A   Partly Cloudy